Volver al catálogo

VINASAT 1

ActivoComunicacionesGEO
NORAD 32767·PAYLOAD·🇻🇳 Vietnam

Lanzado Apr 18, 2008 desde Guiana Space Centre

Loading…

TLE

ActualizadoSource: Space-Track

Época: Sep 14, 2026, 14:25 UTC

1 32767U 08018A   26257.60127446 -.00000336  00000-0  00000-0 0  9997
2 32767   0.0374 297.4037 0001877 252.7109 151.8703  1.00271161 67481

Sigue VINASAT 1 en tiempo real con AllMySat

Download on the App Store